Location: Famechon
(49.7599°N, 2.0615°E)
Time: 21:38:00
(UTC+00:00)

Cosmos 1741 Rocket - Pass Details

Date: 01 April 2025
Orbit: 758 x 778 km, 74.0° (Epoch: 28 April)

Event Time Altitude Azimuth Distance (km) Brightness Sun altitude
Rises 01:23:56 0° 329° (NNW) 3,239 7.6 -32.4°
Reaches altitude 10° 01:26:31 10° 320° (NW) 2,311 6.7 -32.2°
Enters shadow 01:27:27 15° 314° (NW) 2,002 6.3 -32.1°
